KB1JLI Weather Reports


time (UTC)temp
C
wind
direction
speed
KPH
gust
KPH
rain 1hr
cm
rain 24hr
cm
rain mn
cm
humidity
%
barometer
mb
20260505041330 13 149 1.6 6.4 0.00 0.00 0.00 61 1010.5
20260505040827 13 148 1.6 4.8 0.00 0.00 0.00 60 1010.2
20260505040325 13 184 4.8 6.4 0.00 0.00 0.00 60 1010.2
20260505035821 14 29 0.0 3.2 0.00 0.00 0.00 60 1010.2
20260505035317 13 224 11.3 12.9 0.00 0.00 0.00 59 1010.3
20260505034814 14 65 1.6 3.2 0.00 0.00 0.00 59 1010.4
20260505034311 14 210 6.4 14.5 0.00 0.00 0.00 58 1010.3
20260505033808 14 153 1.6 3.2 0.00 0.00 0.00 58 1010.3
20260505033305 14 205 3.2 4.8 0.00 0.00 0.00 57 1010.2
20260505032803 14 351 3.2 4.8 0.00 0.00 0.00 57 1010.0
20260505032259 14 193 1.6 3.2 0.00 0.00 0.00 57 1010.0
20260505031756 15 338 0.0 3.2 0.00 0.00 0.00 56 1010.1
20260505031252 15 191 1.6 9.7 0.00 0.00 0.00 56 1010.1
20260505030750 15 182 3.2 3.2 0.00 0.00 0.00 56 1010.3
20260505030246 15 197 1.6 9.7 0.00 0.00 0.00 55 1010.2
20260505025741 15 171 1.6 20.9 0.00 0.00 0.00 54 1010.2
20260505025240 15 164 1.6 6.4 0.00 0.00 0.00 54 1010.4
20260505024738 15 162 0.0 1.6 0.00 0.00 0.00 54 1010.1
20260505024235 15 271 1.6 9.7 0.00 0.00 0.00 54 1010.2
20260505023732 15 192 1.6 6.4 0.00 0.00 0.00 54 1010.1
20260505023229 15 234 6.4 6.4 0.00 0.00 0.00 54 1010.4
20260505022727 15 217 9.7 16.1 0.00 0.00 0.00 54 1010.1
20260505022223 15 34 1.6 4.8 0.00 0.00 0.00 53 1010.3
20260505021720 15 173 1.6 3.2 0.00 0.00 0.00 53 1010.4
20260505021217 15 157 9.7 11.3 0.00 0.00 0.00 51 1010.2
20260505020713 16 184 3.2 9.7 0.00 0.00 0.00 51 1010.2
20260505020208 16 183 3.2 4.8 0.00 0.00 0.00 52 1010.2
20260505015706 16 158 3.2 4.8 0.00 0.00 0.00 51 1010.1
20260505015202 16 306 0.0 6.4 0.00 0.00 0.00 50 1010.1
20260505014659 16 152 0.0 3.2 0.00 0.00 0.00 50 1010.1
20260505014157 16 198 16.1 20.9 0.00 0.00 0.00 50 1010.0
20260505013654 16 200 6.4 14.5 0.00 0.00 0.00 50 1009.9
20260505013151 16 182 4.8 17.7 0.00 0.00 0.00 49 1009.8
20260505012649 16 240 4.8 12.9 0.00 0.00 0.00 49 1009.8
20260505012146 16 135 3.2 9.7 0.00 0.00 0.00 49 1009.7
20260505011641 16 162 4.8 6.4 0.00 0.00 0.00 48 1009.6
20260505011139 17 161 4.8 22.5 0.00 0.00 0.00 48 1009.4
20260505010634 17 185 12.9 20.9 0.00 0.00 0.00 47 1009.4
20260505010131 17 166 8.0 9.7 0.00 0.00 0.00 48 1009.2
20260505005627 17 38 3.2 3.2 0.00 0.00 0.00 48 1009.3
20260505005124 17 211 12.9 14.5 0.00 0.00 0.00 47 1008.9
20260505004622 17 172 0.0 11.3 0.00 0.00 0.00 47 1008.7
20260505004118 17 164 3.2 11.3 0.00 0.00 0.00 47 1008.7
20260505003615 17 235 3.2 16.1 0.00 0.00 0.00 46 1008.6
20260505003112 17 192 1.6 12.9 0.00 0.00 0.00 46 1008.4
20260505002608 18 134 1.6 6.4 0.00 0.00 0.00 45 1008.2
20260505002102 18 317 6.4 9.7 0.00 0.00 0.00 44 1008.3
20260505001558 18 37 1.6 6.4 0.00 0.00 0.00 44 1007.9
20260505001056 18 204 1.6 12.9 0.00 0.00 0.00 43 1007.9
20260505000552 18 241 1.6 4.8 0.00 0.00 0.00 43 1007.8
20260505000050 18 171 14.5 20.9 0.00 0.00 0.00 42 1007.6
20260504235547 18 230 6.4 12.9 0.00 0.00 0.00 42 1007.5
20260504235043 19 202 14.5 17.7 0.00 0.00 0.00 41 1007.5
20260504234540 19 167 9.7 17.7 0.00 0.00 0.00 40 1007.5
20260504234037 20 175 1.6 9.7 0.00 0.00 0.00 38 1007.2
20260504233533 20 174 9.7 14.5 0.00 0.00 0.00 37 1007.0
20260504233030 20 121 0.0 0.0 0.00 0.00 0.00 36 1006.9
20260504232527 20 152 0.0 1.6 0.00 0.00 0.00 35 1006.7
20260504232025 20 157 0.0 6.4 0.00 0.00 0.00 34 1006.7
20260504231521 21 56 1.6 1.6 0.00 0.00 0.00 34 1006.7
20260504231017 21 214 0.0 1.6 0.00 0.00 0.00 33 1006.7
20260504230513 21 182 1.6 1.6 0.00 0.00 0.00 34 1006.6
20260504230013 21 174 0.0 4.8 0.00 0.00 0.00 33 1006.3
20260504225509 21 233 3.2 24.1 0.00 0.00 0.00 33 1006.4
20260504225006 21 197 1.6 1.6 0.00 0.00 0.00 33 1006.5
20260504224503 21 225 0.0 3.2 0.00 0.00 0.00 32 1006.6
20260504224000 21 259 1.6 3.2 0.00 0.00 0.00 32 1006.3
20260504223456 21 229 1.6 3.2 0.00 0.00 0.00 32 1006.2
20260504222951 21 209 11.3 16.1 0.00 0.00 0.00 31 1006.4
20260504222449 21 66 1.6 4.8 0.00 0.00 0.00 32 1006.2
20260504221947 21 228 11.3 12.9 0.00 0.00 0.00 32 1006.2
20260504221444 21 194 1.6 9.7 0.00 0.00 0.00 31 1006.2
20260504220941 21 202 0.0 6.4 0.00 0.00 0.00 31 1006.4
20260504220437 22 198 17.7 17.7 0.00 0.00 0.00 30 1006.3
20260504215934 22 293 4.8 11.3 0.00 0.00 0.00 30 1006.5
20260504215431 22 287 3.2 4.8 0.00 0.00 0.00 30 1006.2
20260504214928 22 198 3.2 9.7 0.00 0.00 0.00 31 1006.2
20260504214424 22 289 3.2 11.3 0.00 0.00 0.00 30 1006.3
20260504213921 22 302 3.2 11.3 0.00 0.00 0.00 30 1006.1
20260504213417 21 331 1.6 16.1 0.00 0.00 0.00 31 1006.3
20260504212915 22 223 6.4 9.7 0.00 0.00 0.00 30 1006.3
20260504212410 22 238 1.6 6.4 0.00 0.00 0.00 30 1006.3
20260504211908 22 206 4.8 4.8 0.00 0.00 0.00 30 1006.0
20260504211404 22 212 9.7 12.9 0.00 0.00 0.00 30 1006.3
20260504210901 22 124 1.6 3.2 0.00 0.00 0.00 30 1006.3
20260504210358 22 185 3.2 11.3 0.00 0.00 0.00 30 1006.2
20260504205855 22 197 9.7 17.7 0.00 0.00 0.00 30 1006.2
20260504205353 22 308 9.7 14.5 0.00 0.00 0.00 29 1006.2
20260504204851 22 189 0.0 12.9 0.00 0.00 0.00 30 1006.1
20260504204349 22 224 1.6 4.8 0.00 0.00 0.00 30 1006.3
20260504203849 22 213 3.2 12.9 0.00 0.00 0.00 30 1006.0
20260504203345 22 208 9.7 12.9 0.00 0.00 0.00 30 1006.3
20260504202840 22 134 14.5 22.5 0.00 0.00 0.00 29 1006.3
20260504202338 22 15 9.7 12.9 0.00 0.00 0.00 29 1006.5
20260504201834 22 257 4.8 24.1 0.00 0.00 0.00 29 1006.2
20260504201332 22 247 4.8 9.7 0.00 0.00 0.00 29 1006.4
20260504200829 22 198 17.7 20.9 0.00 0.00 0.00 28 1006.3
20260504200326 22 341 6.4 27.4 0.00 0.00 0.00 28 1006.4
20260504195822 23 192 4.8 6.4 0.00 0.00 0.00 27 1006.4
20260504195318 22 75 0.0 3.2 0.00 0.00 0.00 27 1006.3
20260504194815 22 23 3.2 12.9 0.00 0.00 0.00 27 1006.6
20260504194311 23 333 9.7 12.9 0.00 0.00 0.00 27 1006.4
20260504193807 22 178 8.0 11.3 0.00 0.00 0.00 28 1006.4
20260504193304 22 301 6.4 12.9 0.00 0.00 0.00 27 1006.5
20260504192803 22 201 1.6 35.4 0.00 0.00 0.00 29 1006.2
20260504192300 22 200 12.9 16.1 0.00 0.00 0.00 28 1006.2
20260504191759 22 207 14.5 24.1 0.00 0.00 0.00 28 1006.4
20260504191256 22 179 4.8 6.4 0.00 0.00 0.00 30 1006.5
20260504190751 22 150 3.2 4.8 0.00 0.00 0.00 28 1006.6
20260504190248 22 335 12.9 16.1 0.00 0.00 0.00 27 1006.7
20260504185744 22 285 6.4 9.7 0.00 0.00 0.00 29 1006.5
20260504185241 22 252 3.2 9.7 0.00 0.00 0.00 28 1006.6
20260504184737 22 278 6.4 12.9 0.00 0.00 0.00 28 1006.8
20260504184233 21 193 4.8 12.9 0.00 0.00 0.00 29 1006.8
20260504183729 22 207 14.5 37.0 0.00 0.00 0.00 29 1006.7
20260504183226 22 5 8.0 9.7 0.00 0.00 0.00 27 1006.9
20260504182724 22 28 3.2 11.3 0.00 0.00 0.00 29 1006.8
20260504182221 22 11 6.4 11.3 0.00 0.00 0.00 28 1007.0
20260504181719 22 214 9.7 14.5 0.00 0.00 0.00 29 1006.6
20260504181216 21 221 9.7 24.1 0.00 0.00 0.00 30 1006.7
20260504180715 22 188 6.4 20.9 0.00 0.00 0.00 29 1006.9
20260504180213 21 256 3.2 11.3 0.00 0.00 0.00 29 1007.0
20260504175711 22 192 9.7 25.7 0.00 0.00 0.00 30 1007.1
20260504175207 21 236 9.7 17.7 0.00 0.00 0.00 31 1007.1
20260504174705 21 280 9.7 25.7 0.00 0.00 0.00 30 1007.0
20260504174203 20 203 14.5 20.9 0.00 0.00 0.00 31 1007.1
20260504173659 21 23 3.2 24.1 0.00 0.00 0.00 31 1007.4
20260504173156 21 219 6.4 12.9 0.00 0.00 0.00 30 1007.3
20260504172653 20 308 4.8 20.9 0.00 0.00 0.00 32 1007.2
20260504172149 20 274 3.2 12.9 0.00 0.00 0.00 32 1007.2
20260504171645 21 338 9.7 17.7 0.00 0.00 0.00 31 1007.5
20260504171143 21 311 4.8 22.5 0.00 0.00 0.00 32 1007.5
20260504170639 21 318 4.8 6.4 0.00 0.00 0.00 31 1007.4
20260504170137 21 205 6.4 11.3 0.00 0.00 0.00 32 1007.4
20260504151016 19 257 6.4 9.7 0.00 0.00 0.00 34 1008.6
20260504150514 19 3 0.0 9.7 0.00 0.00 0.00 36 1008.8
20260504140940 17 247 6.4 12.9 0.00 0.00 0.00 38 1009.3
20260504140436 17 326 6.4 9.7 0.00 0.00 0.00 38 1009.2
20260504130401 16 27 1.6 3.2 0.00 0.00 0.00 42 1009.9
20260504120318 12 187 3.2 3.2 0.00 0.00 0.00 48 1010.4
20260504110242 8 148 0.0 0.0 0.00 0.00 0.00 58 1010.4
20260504100200 8 219 1.6 6.4 0.00 0.00 0.00 57 1010.3
20260504090123 8 181 0.0 0.0 0.00 0.00 0.00 57 1010.4
20260504081552 8 193 3.2 4.8 0.00 0.00 0.00 55 1010.5
20260504081048 8 210 1.6 4.8 0.00 0.00 0.00 55 1010.6
20260504080545 8 171 0.0 1.6 0.00 0.00 0.00 56 1010.3
20260504050358 2 185 0.0 0.0 0.00 0.00 0.00 86 1010.5
20260504045855 2 185 0.0 0.0 0.00 0.00 0.00 86 1010.3
20260504045350 2 185 0.0 0.0 0.00 0.00 0.00 86 1010.3